MB7UEL Weather Reports


Display with metric or nautical units.
time (UTC)temp
F
wind
direction
speed
MPH
gust
MPH
rain 1hr
in
rain 24hr
in
rain mn
in
humidity
%
barometer
mb
20260505123506 47 35 17.0 22.0 0.00 0.00 0.00 1018.0
20260505120506 46 36 17.0 23.0 0.00 0.00 0.00 1019.0
20260505113506 46 32 18.0 23.0 0.00 0.00 0.00 1018.0
20260505110506 46 32 18.0 23.0 0.00 0.00 0.00 1018.0
20260505100506 47 43 14.0 19.0 0.00 0.00 0.00 1018.0
20260505093505 47 41 3.0 5.0 0.00 0.00 0.00 1017.0
20260505090505 47 41 3.0 5.0 0.00 0.00 0.00 1017.0
20260505083505 47 346 1.0 2.0 0.00 0.00 0.00 1017.0
20260505080505 47 346 1.0 2.0 0.00 0.00 0.00 1017.0
20260505073505 47 325 4.0 6.0 0.00 0.00 0.00 1016.0
20260505070505 47 325 4.0 6.0 0.00 0.00 0.00 1017.0
20260505063505 47 307 7.0 10.0 0.00 0.00 0.00 1016.0
20260505060505 46 289 6.0 9.0 0.00 0.00 0.00 1016.0
20260505053505 46 278 8.0 12.0 0.00 0.00 0.00 1016.0
20260505050505 46 278 8.0 12.0 0.00 0.00 0.00 1016.0
20260505040505 46 266 10.0 14.0 0.00 0.00 0.00 1016.0
20260505033506 47 255 12.0 15.0 0.00 0.00 0.00 1015.0
20260505030506 47 255 12.0 15.0 0.00 0.00 0.00 1016.0
20260505023506 47 255 12.0 15.0 0.00 0.00 0.00 1016.0
20260505020506 47 255 12.0 15.0 0.00 0.00 0.00 1016.0
20260505013506 48 252 11.0 15.0 0.00 0.00 0.00 1016.0
20260505010506 48 252 11.0 15.0 0.00 0.00 0.00 1016.0
20260505003505 48 246 11.0 15.0 0.00 0.00 0.00 1016.0
20260505000506 48 249 10.0 13.0 0.00 0.00 0.00 1016.0
20260504233505 48 252 11.0 14.0 0.00 0.00 0.00 1016.0
20260504230505 48 252 11.0 14.0 0.00 0.00 0.00 1016.0
20260504223505 49 255 12.0 15.0 0.00 0.00 0.00 1016.0
20260504220505 49 255 12.0 15.0 0.00 0.00 0.00 1016.0
20260504213505 50 267 13.0 16.0 0.00 0.00 0.00 1016.0
20260504210506 50 267 13.0 16.0 0.00 0.00 0.00 1016.0
20260504203506 52 270 13.0 16.0 0.00 0.00 0.00 1016.0
20260504200506 52 270 13.0 16.0 0.00 0.00 0.00 1016.0
20260504193506 52 265 12.0 15.0 0.00 0.00 0.00 1016.0
20260504190506 52 265 12.0 15.0 0.00 0.00 0.00 1016.0
20260504183506 53 262 11.0 14.0 0.00 0.00 0.00 1015.0
20260504180506 53 248 12.0 15.0 0.00 0.00 0.00 1015.0
20260504173506 53 248 13.0 16.0 0.00 0.00 0.00 1015.0
20260504170506 53 248 13.0 16.0 0.00 0.00 0.00 1015.0
20260504150505 53 236 16.0 20.0 0.00 0.00 0.00 1015.0
20260504140505 53 237 14.0 17.0 0.00 0.00 0.00 1016.0
20260504130505 52 248 14.0 17.0 0.00 0.00 0.00 1016.0